Weather History for Fountain Dale, PA

Change the Weather History Date:

Monday, November 21, 2011

  Actual Average (KHGR) Record (KHGR)
Temperature  
Mean Temperature 52 °F -  
Max Temperature 57 °F 49 °F 71 °F (2007)
Min Temperature 46 °F 34 °F 25 °F (2000)
Degree Days  
Heating Degree Days 14    
Growing Degree Days 2 (Base 50)    
Moisture  
Dew Point 47 °F    
Average Humidity 86    
Maximum Humidity 94    
Minimum Humidity 77    
Precipitation  
Precipitation 0.16 in - - ()
Sea Level Pressure  
Sea Level Pressure 30.21 in    
Wind  
Wind Speed 2 mph (ENE)    
Max Wind Speed 8 mph    
Max Gust Speed -    
Visibility 3 miles    
Events Fog , Rain    
Averages and records for this station are not official NWS values.
T = Trace of Precipitation, MM = Missing Value Source: NWS Daily Summary

Daily Weather History Graph

Daily Weather History Graph

Search for Another Location

Airport:

Trip Planner

Search our weather history database for the weather conditions in past years. The results will help you decide how hot, cold, wet, or windy it might be!

Date:

Astronomy

Nov. 21, 2011 Rise Set
Actual Time 7:00 AM EST 4:50 PM EST
Civil Twilight 6:31 AM EST 5:19 PM EST
Nautical Twilight 5:58 AM EST 5:52 PM EST
Astronomical Twilight 5:26 AM EST 6:24 PM EST
Moon 2:37 AM EST (11/21) 2:10 PM EST (11/21)
Length of Visible Light 10h 47m
Length of Day
9h 49m
Waning Crescent, 18% of the Moon is Illuminated
Nov 21
Waning Crescent
Nov 25
New
Dec 2
First Quarter
Dec 10
Full
Dec 17
Last Quarter

Hourly Weather History & Observations

Time (EST) Temp. Windchill Dew Point Humidity Pressure Visibility Wind Dir Wind Speed Gust Speed Precip Events Conditions
12:20 AM 55.4 °F - 51.8 °F 88% 30.15 in 0.5 mi Calm Calm - 0.01 in Fog , Rain Light Rain
12:33 AM 57.2 °F - 53.6 °F 88% 30.14 in 2.0 mi Calm Calm - 0.01 in Rain Light Rain
12:40 AM 57.2 °F - 53.6 °F 88% 30.14 in 4.0 mi Calm Calm - 0.02 in Rain Light Rain
1:06 AM 55.4 °F - 53.6 °F 94% 30.12 in 1.5 mi Calm Calm - 0.01 in Rain Light Rain
1:30 AM 57.2 °F - 53.6 °F 88% 30.13 in 3.0 mi Calm Calm - 0.01 in   Overcast
1:53 AM 55.9 °F - 53.1 °F 90% 30.13 in 1.0 mi SW 3.5 mph - 0.01 in Rain Light Rain
1:58 AM 57.2 °F - 53.6 °F 88% 30.14 in 3.0 mi Calm Calm - 0.01 in Rain Light Rain
2:53 AM 55.9 °F - 52.0 °F 87% 30.12 in 0.5 mi Calm Calm - 0.01 in Fog , Rain Light Rain
3:01 AM 55.4 °F - 51.8 °F 88% 30.12 in 0.2 mi Calm Calm - 0.00 in Fog , Rain Light Rain
3:35 AM 55.4 °F - 51.8 °F 88% 30.13 in 0.2 mi Calm Calm - 0.00 in Fog Fog
3:44 AM 55.4 °F - 51.8 °F 88% 30.13 in 0.5 mi Calm Calm - 0.00 in Fog Fog
3:53 AM 55.0 °F - 52.0 °F 89% 30.12 in 0.5 mi Calm Calm - 0.00 in Fog Fog
4:04 AM 55.4 °F - 51.8 °F 88% 30.13 in 0.2 mi Calm Calm - 0.00 in Fog , Rain Light Rain
4:13 AM 55.4 °F - 51.8 °F 88% 30.14 in 1.0 mi Calm Calm - 0.00 in   Overcast
4:26 AM 53.6 °F - 51.8 °F 94% 30.13 in 0.2 mi Calm Calm - 0.00 in Fog Fog
4:32 AM 55.4 °F - 51.8 °F 88% 30.13 in 0.5 mi Calm Calm - 0.00 in Fog Fog
4:53 AM 55.0 °F - 52.0 °F 89% 30.14 in 2.0 mi Calm Calm - 0.00 in   Overcast
5:02 AM 57.2 °F - 53.6 °F 88% 30.15 in 6.0 mi Calm Calm - N/A   Overcast
5:38 AM 55.4 °F - 53.6 °F 94% 30.16 in 9.0 mi Calm Calm - N/A   Overcast
5:53 AM 55.9 °F - 53.1 °F 90% 30.16 in 6.0 mi Calm Calm - N/A   Overcast
6:24 AM 57.2 °F - 53.6 °F 88% 30.18 in 10.0 mi Calm Calm - N/A   Overcast
6:38 AM 57.2 °F - 53.6 °F 88% 30.18 in 8.0 mi Calm Calm - N/A   Overcast
6:53 AM 57.0 °F - 53.1 °F 87% 30.17 in 6.0 mi Calm Calm - N/A   Overcast
7:30 AM 55.4 °F - 51.8 °F 88% 30.20 in 5.0 mi Variable 6.9 mph - N/A   Overcast
7:59 AM 53.6 °F - 48.2 °F 82% 30.22 in 2.5 mi East 6.9 mph - 0.00 in Rain Light Rain
8:39 AM 53.6 °F - 46.4 °F 77% 30.24 in 2.5 mi East 3.5 mph - 0.01 in   Haze
8:53 AM 52.0 °F - 46.9 °F 83% 30.25 in 1.5 mi ENE 3.5 mph - 0.01 in Rain Light Rain
9:23 AM 51.8 °F - 48.2 °F 88% 30.25 in 2.5 mi ENE 6.9 mph - 0.03 in Rain Light Rain
9:40 AM 51.8 °F - 46.4 °F 82% 30.26 in 1.5 mi ENE 5.8 mph - 0.04 in Rain Light Rain
9:53 AM 52.0 °F - 46.9 °F 83% 30.26 in 1.8 mi ENE 5.8 mph - 0.04 in Rain Light Rain
10:09 AM 51.8 °F - 46.4 °F 82% 30.26 in 3.0 mi ENE 4.6 mph - 0.00 in   Haze
10:20 AM 51.8 °F - 46.4 °F 82% 30.27 in 4.0 mi East 3.5 mph - 0.00 in   Haze
10:40 AM 51.8 °F - 46.4 °F 82% 30.27 in 3.0 mi ENE 5.8 mph - 0.00 in   Haze
10:53 AM 51.1 °F - 46.0 °F 83% 30.27 in 3.0 mi NE 5.8 mph - 0.00 in   Haze
11:53 AM 50.0 °F - 46.0 °F 86% 30.25 in 3.0 mi Calm Calm - N/A   Overcast
12:04 PM 50.0 °F - 44.6 °F 82% 30.23 in 3.0 mi NE 3.5 mph - N/A   Haze
12:53 PM 50.0 °F - 44.1 °F 80% 30.23 in 4.0 mi Variable 3.5 mph - N/A   Haze
1:53 PM 48.9 °F - 44.1 °F 83% 30.22 in 3.0 mi NNE 3.5 mph - 0.01 in Rain Light Rain
2:00 PM 48.2 °F - 44.6 °F 87% 30.22 in 2.0 mi NE 4.6 mph - 0.01 in Rain Light Rain
2:16 PM 48.2 °F - 44.6 °F 87% 30.22 in 4.0 mi Variable 6.9 mph - 0.01 in Rain Light Rain
2:53 PM 48.0 °F - 43.0 °F 83% 30.22 in 4.0 mi NE 6.9 mph - 0.02 in   Haze
3:10 PM 48.2 °F - 42.8 °F 82% 30.21 in 4.0 mi ENE 8.1 mph - 0.00 in Rain Light Rain
3:23 PM 48.2 °F - 42.8 °F 82% 30.22 in 3.0 mi ENE 5.8 mph - 0.00 in Rain Light Rain
3:53 PM 46.9 °F - 42.1 °F 83% 30.25 in 5.0 mi NE 5.8 mph - 0.00 in Rain Light Rain
4:53 PM 46.0 °F 43.9 °F 41.0 °F 83% 30.25 in 4.0 mi NE 4.6 mph - 0.01 in   Haze
5:02 PM 46.4 °F 43.5 °F 41.0 °F 81% 30.25 in 4.0 mi NE 5.8 mph - N/A   Haze
5:29 PM 46.4 °F 45.2 °F 42.8 °F 87% 30.26 in 5.0 mi ENE 3.5 mph - 0.00 in Rain Light Rain
5:53 PM 46.0 °F 43.9 °F 42.1 °F 86% 30.27 in 4.0 mi ENE 4.6 mph - 0.00 in Rain Light Rain
6:19 PM 46.4 °F - 42.8 °F 87% 30.26 in 5.0 mi Calm Calm - 0.01 in Rain Light Rain
6:58 PM 46.4 °F - 42.8 °F 87% 30.26 in 4.0 mi Calm Calm - 0.00 in   Overcast
7:09 PM 46.4 °F - 42.8 °F 87% 30.25 in 2.5 mi Calm Calm - 0.00 in   Overcast
7:16 PM 46.4 °F - 42.8 °F 87% 30.25 in 4.0 mi Calm Calm - 0.00 in Rain Light Rain
7:25 PM 46.4 °F - 42.8 °F 87% 30.25 in 3.0 mi Calm Calm - 0.01 in Rain Light Rain
7:53 PM 46.9 °F - 42.1 °F 83% 30.27 in 4.0 mi Calm Calm - 0.01 in   Haze
8:31 PM 46.4 °F - 42.8 °F 87% 30.25 in 4.0 mi Calm Calm - 0.00 in Rain Light Rain
8:53 PM 46.0 °F 43.9 °F 42.1 °F 86% 30.27 in 3.0 mi NE 4.6 mph - 0.00 in   Overcast
9:02 PM 46.4 °F 44.3 °F 42.8 °F 87% 30.25 in 2.5 mi ENE 4.6 mph - 0.00 in Rain Light Rain
9:53 PM 46.0 °F 44.8 °F 42.1 °F 86% 30.27 in 2.0 mi ENE 3.5 mph - 0.01 in Rain Light Rain
10:30 PM 46.4 °F - 42.8 °F 87% 30.25 in 1.8 mi Calm Calm - 0.01 in Rain Light Rain
10:53 PM 46.0 °F 44.8 °F 42.1 °F 86% 30.27 in 2.0 mi ENE 3.5 mph - 0.02 in Rain Light Rain
11:01 PM 46.4 °F - 42.8 °F 87% 30.25 in 1.8 mi Calm Calm - 0.00 in Rain Light Rain
11:11 PM 46.4 °F - 42.8 °F 87% 30.25 in 2.5 mi Calm Calm - 0.00 in Rain Light Rain
11:46 PM 46.4 °F 45.2 °F 42.8 °F 87% 30.24 in 3.0 mi East 3.5 mph - 0.01 in   Haze
11:53 PM 46.9 °F - 42.1 °F 83% 30.25 in 2.5 mi Calm Calm - 0.01 in   Haze